Regional Weather Roundup
Issued by NWS

Home | Current Version | Previous Version | Text Only | Print | Product List | Glossary On
Versions: 1 2 3 4 5 6 7 8 9 10 11 12 13 14 15 16 17 18 19 20 21 22 23 24 25 26 27 28 29 30 31 32 33 34 35 36 37 38 39 40 41 42 43 44 45 46 47 48 49 50
660
ASUS43 KOAX 291110
RWRNE

WEATHER ROUNDUP FOR NEBRASKA
NATIONAL WEATHER SERVICE OMAHA NE
600 AM CDT WED MAR 29 2017

NOTES: SATELLITE DATA IS BEING USED TO AUGMENT CLOUD COVER ABOVE
       12000 FEET.
       "FAIR" INDICATES FEW OR NO CLOUDS BELOW 12,000 FEET WITH NO
       SIGNIFICANT WEATHER AND/OR OBSTRUCTIONS TO VISIBILITY.

  * THESE STATIONS DO NOT REPORT WEATHER SUCH AS RAIN...SNOW OR FOG.

NEZ001>004-019>022-054>056-291200-
NEBRASKA PANHANDLE

CITY           SKY/WX    TMP DP  RH WIND       PRES   REMARKS
SCOTTSBLUFF    CLOUDY    39  37  92 W5        30.12S
ALLIANCE       CLOUDY    38  37  97 CALM      30.10S
CHADRON        CLOUDY    41  38  89 CALM      30.13R
KIMBALL        CLOUDY    37  37 100 N6        30.08F WCI  32
SIDNEY         CLOUDY    36  35  96 N8        30.08F WCI  30
$$

NEZ057>060-069>072-079>082-291200-
SOUTHWEST NEBRASKA

CITY           SKY/WX    TMP DP  RH WIND       PRES   REMARKS
NORTH PLATTE   CLOUDY    43  41  93 N6        30.05S
IMPERIAL       CLOUDY    42  39  89 N15       30.03S
LEXINGTON      DRIZZLE   43  41  93 NE10      30.02S
MCCOOK         CLOUDY    42  42 100 N13       29.99F
OGALLALA       DRIZZLE   42  40  93 N10       30.07S
$$

NEZ005>010-023>029-035>040-094-291200-
NORTH CENTRAL NEBRASKA

CITY           SKY/WX    TMP DP  RH WIND       PRES   REMARKS
VALENTINE      CLOUDY    42  40  92 NE6       30.12R
AINSWORTH      DRIZZLE   42  42 100 N9        30.10S
BROKEN BOW     CLOUDY    44  40  85 NE8       30.05R
O`NEILL        LGT RAIN  44  43  98 N7        30.09R
ORD            CLOUDY    45  41  86 NE10      30.05R
THEDFORD       LGT RAIN  42  41  95 N6        30.10S
$$

NEZ041-046>049-061>064-073>077-083>087-291200-
SOUTH CENTRAL NEBRASKA

CITY           SKY/WX    TMP DP  RH WIND       PRES   REMARKS
GRAND ISLAND   CLOUDY    43  43 100 NE16      30.02R FOG
AURORA         LGT RAIN  43  43 100 NE15      30.00S
HASTINGS       LGT RAIN  44  42  93 NE14      30.00R FOG
HEBRON         DRIZZLE   46  45  97 NE14G21   29.93S
HOLDREGE       DRIZZLE   42  41  96 N16       29.99S
KEARNEY *      CLOUDY    43  39  87 N16       30.01R
YORK           CLOUDY    45  45 100 NE15      30.00R FOG
$$

NEZ011>018-030>034-042>045-291200-
NORTHEAST NEBRASKA

CITY           SKY/WX    TMP DP  RH WIND       PRES   REMARKS
NORFOLK        LGT RAIN  44  41  89 NE9       30.06S
ALBION         DRIZZLE   45  42  90 NE7       30.07R
BLAIR          LGT RAIN  46  44  95 NE15      30.01F
FREMONT        RAIN      45  45  99 NE9       30.02F
TEKAMAH        LGT RAIN  45  43  93 NE12      30.04F
WAYNE          RAIN      44  44  99 NE8       30.08R
$$

NEZ050>053-065>068-078-088>093-291200-
SOUTHEAST NEBRASKA

CITY           SKY/WX    TMP DP  RH WIND       PRES   REMARKS
LINCOLN        LGT RAIN  46  44  93 NE16      29.99F
OMAHA EPPLEY   LGT RAIN  47  42  83 E16       30.03F
BEATRICE       LGT RAIN  46  46  97 NE15G24   29.93S
FALLS CITY     LGT RAIN  47  46  97 NE17G24   29.92F
NEBRASKA CITY  LGT RAIN  46  46 100 E18G24    29.96F
PLATTSMOUTH    RAIN      46  43  91 NE13G18   29.99F
$$

NEZ044-045-051>053-067-291200-
OMAHA AREA

CITY           SKY/WX    TMP DP  RH WIND       PRES   REMARKS
OMAHA EPPLEY   LGT RAIN  47  42  83 E16       30.03F
BLAIR          LGT RAIN  46  44  95 NE15      30.01F
FREMONT        RAIN      45  45  99 NE9       30.02F
MILLARD        RAIN      48  46  92 NE8G17    30.01F
OFFUTT AFB     RAIN      46  44  93 NE10      30.00F FOG
PLATTSMOUTH    RAIN      46  43  91 NE13G18   29.99F
WAHOO          DRIZZLE   45  44  96 NE12      30.01S
$$




USA.gov is the U.S. government's official web portal to all federal, state and local government web resources and services.